Time,TemperatureF,DewpointF,PressureIn,WindDirection,WindDirectionDegrees,WindSpeedMPH,WindSpeedGustMPH,Humidity,HourlyPrecipIn,Conditions,Clouds,dailyrainin,SoftwareType,DateUTC
2013-05-21 00:00:00,61.5,60.9,29.85,WNW,292,0.0,-999.0,98,-99.99,,,0.00,Acu-Link.com,2013-05-21 04:00:00,
2013-05-21 00:15:00,61.2,60.6,29.85,NE,45,0.0,-999.0,98,-99.99,,,0.00,Acu-Link.com,2013-05-21 04:15:00,
2013-05-21 00:30:00,60.6,60.0,29.84,WSW,247,0.0,-999.0,98,-99.99,,,0.00,Acu-Link.com,2013-05-21 04:30:00,
2013-05-21 00:45:00,60.4,59.8,29.85,SW,225,0.0,-999.0,98,-99.99,,,0.00,Acu-Link.com,2013-05-21 04:45:00,
2013-05-21 01:01:00,60.1,59.5,29.84,WSW,247,0.0,-999.0,98,-99.99,,,0.00,Acu-Link.com,2013-05-21 05:01:00,
2013-05-21 01:16:00,59.9,59.3,29.84,ESE,112,0.0,-999.0,98,-99.99,,,0.00,Acu-Link.com,2013-05-21 05:16:00,
2013-05-21 01:31:00,59.5,58.9,29.83,SE,135,0.0,-999.0,98,-99.99,,,0.00,Acu-Link.com,2013-05-21 05:31:00,
2013-05-21 01:46:00,59.2,58.6,29.83,South,180,0.0,-999.0,98,-99.99,,,0.00,Acu-Link.com,2013-05-21 05:46:00,
2013-05-21 02:01:00,59.2,58.6,29.83,ENE,67,0.0,-999.0,98,-99.99,,,0.00,Acu-Link.com,2013-05-21 06:01:00,
2013-05-21 02:17:00,59.2,58.6,29.83,SE,135,0.0,-999.0,98,-99.99,,,0.00,Acu-Link.com,2013-05-21 06:17:00,
2013-05-21 02:32:00,59.2,58.6,29.82,SE,135,0.0,-999.0,98,-99.99,,,0.00,Acu-Link.com,2013-05-21 06:32:00,
2013-05-21 02:47:00,58.8,58.2,29.82,NE,45,0.0,-999.0,98,-99.99,,,0.00,Acu-Link.com,2013-05-21 06:47:00,
2013-05-21 03:02:00,58.6,58.0,29.82,ESE,112,0.0,-999.0,98,-99.99,,,0.00,Acu-Link.com,2013-05-21 07:02:00,
2013-05-21 03:18:00,58.3,57.7,29.83,West,270,0.0,-999.0,98,-99.99,,,0.00,Acu-Link.com,2013-05-21 07:18:00,
2013-05-21 03:33:00,58.1,57.5,29.83,South,180,0.0,-999.0,98,-99.99,,,0.00,Acu-Link.com,2013-05-21 07:33:00,
2013-05-21 03:48:00,57.9,57.3,29.82,SSE,157,0.0,-999.0,98,-99.99,,,0.00,Acu-Link.com,2013-05-21 07:48:00,
2013-05-21 04:03:00,57.7,57.1,29.82,East,90,0.0,-999.0,98,-99.99,,,0.00,Acu-Link.com,2013-05-21 08:03:00,
2013-05-21 04:19:00,57.6,57.0,29.82,ENE,67,0.0,-999.0,98,-99.99,,,0.00,Acu-Link.com,2013-05-21 08:19:00,
2013-05-21 04:34:00,57.2,56.6,29.82,SSE,157,0.0,-999.0,98,-99.99,,,0.00,Acu-Link.com,2013-05-21 08:34:00,
2013-05-21 04:49:00,57.2,56.6,29.82,South,180,0.0,-999.0,98,-99.99,,,0.00,Acu-Link.com,2013-05-21 08:49:00,
2013-05-21 05:04:00,56.7,56.1,29.82,SW,225,0.0,-999.0,98,-99.99,,,0.00,Acu-Link.com,2013-05-21 09:04:00,
2013-05-21 05:20:00,56.3,55.7,29.82,ESE,112,0.0,-999.0,98,-99.99,,,0.00,Acu-Link.com,2013-05-21 09:20:00,
2013-05-21 05:35:00,56.1,55.5,29.81,SE,135,0.0,-999.0,98,-99.99,,,0.00,Acu-Link.com,2013-05-21 09:35:00,
2013-05-21 05:50:00,55.8,55.2,29.82,South,180,0.0,-999.0,98,-99.99,,,0.00,Acu-Link.com,2013-05-21 09:50:00,
2013-05-21 06:05:00,57.0,56.4,29.84,South,180,2.2,-999.0,98,-99.99,,,0.00,Acu-Link.com,2013-05-21 10:05:00,
2013-05-21 06:20:00,58.1,57.5,29.83,ESE,112,0.0,-999.0,98,-99.99,,,0.00,Acu-Link.com,2013-05-21 10:20:00,
2013-05-21 06:36:00,56.7,56.1,29.84,SE,135,0.0,-999.0,98,-99.99,,,0.00,Acu-Link.com,2013-05-21 10:36:00,
2013-05-21 06:51:00,56.7,56.1,29.84,ESE,112,0.0,-999.0,98,-99.99,,,0.00,Acu-Link.com,2013-05-21 10:51:00,
2013-05-21 07:06:00,57.2,56.6,29.85,SSW,202,0.0,-999.0,98,-99.99,,,0.00,Acu-Link.com,2013-05-21 11:06:00,
2013-05-21 07:21:00,57.9,57.3,29.85,ENE,67,0.0,-999.0,98,-99.99,,,0.00,Acu-Link.com,2013-05-21 11:21:00,
2013-05-21 07:36:00,58.8,58.2,29.85,NNE,22,0.0,-999.0,98,-99.99,,,0.00,Acu-Link.com,2013-05-21 11:36:00,
2013-05-21 07:52:00,60.3,59.7,29.85,SSE,157,0.0,-999.0,98,-99.99,,,0.00,Acu-Link.com,2013-05-21 11:52:00,
2013-05-21 08:07:00,61.7,61.1,29.85,ENE,67,0.0,-999.0,98,-99.99,,,0.00,Acu-Link.com,2013-05-21 12:07:00,
2013-05-21 08:22:00,63.3,62.7,29.86,South,180,0.0,-999.0,98,-99.99,,,0.00,Acu-Link.com,2013-05-21 12:22:00,
2013-05-21 08:37:00,67.3,66.7,29.86,East,90,0.0,-999.0,98,-99.99,,,0.00,Acu-Link.com,2013-05-21 12:37:00,
2013-05-21 08:52:00,71.1,70.5,29.86,SE,135,1.7,-999.0,98,-99.99,,,0.00,Acu-Link.com,2013-05-21 12:52:00,
2013-05-21 09:08:00,74.3,73.7,29.86,South,180,0.0,-999.0,98,-99.99,,,0.00,Acu-Link.com,2013-05-21 13:08:00,
2013-05-21 09:23:00,76.6,76.0,29.87,South,180,1.1,-999.0,98,-99.99,,,0.00,Acu-Link.com,2013-05-21 13:23:00,
2013-05-21 09:38:00,79.0,78.4,29.87,SE,135,1.7,-999.0,98,-99.99,,,0.00,Acu-Link.com,2013-05-21 13:38:00,
2013-05-21 09:53:00,78.6,78.0,29.87,ESE,112,2.2,-999.0,98,-99.99,,,0.00,Acu-Link.com,2013-05-21 13:53:00,
2013-05-21 10:08:00,75.7,75.1,29.87,South,180,2.2,-999.0,98,-99.99,,,0.00,Acu-Link.com,2013-05-21 14:08:00,
2013-05-21 10:24:00,79.2,78.6,29.86,South,180,2.7,-999.0,98,-99.99,,,0.00,Acu-Link.com,2013-05-21 14:24:00,
2013-05-21 10:39:00,79.3,78.7,29.87,ESE,112,2.2,-999.0,98,-99.99,,,0.00,Acu-Link.com,2013-05-21 14:39:00,
2013-05-21 10:54:00,80.8,78.3,29.86,NNE,22,1.1,-999.0,92,-99.99,,,0.00,Acu-Link.com,2013-05-21 14:54:00,
2013-05-21 11:09:00,81.0,78.4,29.86,ESE,112,2.7,-999.0,92,-99.99,,,0.00,Acu-Link.com,2013-05-21 15:09:00,
2013-05-21 11:25:00,82.0,78.8,29.86,ESE,112,1.7,-999.0,90,-99.99,,,0.00,Acu-Link.com,2013-05-21 15:25:00,
2013-05-21 11:40:00,84.0,80.4,29.86,SE,135,2.2,-999.0,89,-99.99,,,0.00,Acu-Link.com,2013-05-21 15:40:00,
2013-05-21 11:55:00,83.5,78.5,29.86,ENE,67,2.7,-999.0,85,-99.99,,,0.00,Acu-Link.com,2013-05-21 15:55:00,
2013-05-21 12:10:00,84.7,78.9,29.85,ESE,112,1.7,-999.0,83,-99.99,,,0.00,Acu-Link.com,2013-05-21 16:10:00,
2013-05-21 12:25:00,84.6,79.2,29.85,ESE,112,1.7,-999.0,84,-99.99,,,0.00,Acu-Link.com,2013-05-21 16:25:00,
2013-05-21 12:41:00,85.5,76.2,29.84,East,90,3.2,-999.0,74,-99.99,,,0.00,Acu-Link.com,2013-05-21 16:41:00,
2013-05-21 12:56:00,85.3,78.0,29.84,SSE,157,2.7,-999.0,79,-99.99,,,0.00,Acu-Link.com,2013-05-21 16:56:00,
2013-05-21 13:11:00,85.8,77.3,29.83,East,90,2.2,-999.0,76,-99.99,,,0.00,Acu-Link.com,2013-05-21 17:11:00,
2013-05-21 13:27:00,85.3,76.0,29.82,East,90,0.0,-999.0,74,-99.99,,,0.00,Acu-Link.com,2013-05-21 17:27:00,
2013-05-21 13:42:00,83.7,73.3,29.81,North,0,3.7,-999.0,71,-99.99,,,0.00,Acu-Link.com,2013-05-21 17:42:00,
2013-05-21 13:57:00,85.5,73.7,29.81,West,270,3.7,-999.0,68,-99.99,,,0.00,Acu-Link.com,2013-05-21 17:57:00,
2013-05-21 14:12:00,85.5,75.8,29.81,ESE,112,1.1,-999.0,73,-99.99,,,0.00,Acu-Link.com,2013-05-21 18:12:00,
2013-05-21 14:28:00,85.8,74.9,29.80,ESE,112,0.0,-999.0,70,-99.99,,,0.00,Acu-Link.com,2013-05-21 18:28:00,
2013-05-21 14:43:00,86.7,74.8,29.79,South,180,2.7,-999.0,68,-99.99,,,0.00,Acu-Link.com,2013-05-21 18:43:00,
2013-05-21 14:58:00,86.9,76.3,29.79,NNE,22,3.2,-999.0,71,-99.99,,,0.00,Acu-Link.com,2013-05-21 18:58:00,
2013-05-21 15:13:00,87.3,78.0,29.78,ESE,112,0.0,-999.0,74,-99.99,,,0.00,Acu-Link.com,2013-05-21 19:13:00,
2013-05-21 15:28:00,87.1,76.9,29.78,NNE,22,3.7,-999.0,72,-99.99,,,0.00,Acu-Link.com,2013-05-21 19:28:00,
2013-05-21 15:44:00,83.3,76.1,29.78,WSW,247,1.7,-999.0,79,-99.99,,,0.00,Acu-Link.com,2013-05-21 19:44:00,
2013-05-21 15:59:00,82.0,77.4,29.78,South,180,1.1,-999.0,86,-99.99,,,0.00,Acu-Link.com,2013-05-21 19:59:00,
2013-05-21 16:14:00,80.4,76.8,29.78,SE,135,2.2,-999.0,89,-99.99,,,0.00,Acu-Link.com,2013-05-21 20:14:00,
2013-05-21 16:29:00,83.8,79.9,29.78,NNE,22,1.7,-999.0,88,-99.99,,,0.00,Acu-Link.com,2013-05-21 20:29:00,
2013-05-21 16:45:00,82.0,77.0,29.78,North,0,3.7,-999.0,85,-99.99,,,0.00,Acu-Link.com,2013-05-21 20:45:00,
2013-05-21 17:00:00,81.3,77.7,29.77,SSE,157,1.7,-999.0,89,-99.99,,,0.00,Acu-Link.com,2013-05-21 21:00:00,
2013-05-21 17:15:00,81.3,79.1,29.77,West,270,0.0,-999.0,93,-99.99,,,0.00,Acu-Link.com,2013-05-21 21:15:00,
2013-05-21 17:30:00,78.1,76.2,29.78,SSW,202,2.7,-999.0,94,-99.99,,,0.00,Acu-Link.com,2013-05-21 21:30:00,
2013-05-21 17:45:00,77.4,75.5,29.77,SE,135,0.0,-999.0,94,-99.99,,,0.00,Acu-Link.com,2013-05-21 21:45:00,
2013-05-21 18:01:00,77.4,74.9,29.77,SSE,157,0.0,-999.0,92,-99.99,,,0.00,Acu-Link.com,2013-05-21 22:01:00,
2013-05-21 18:16:00,77.5,74.0,29.77,SSE,157,1.7,-999.0,89,-99.99,,,0.00,Acu-Link.com,2013-05-21 22:16:00,
2013-05-21 18:31:00,78.8,76.6,29.76,ENE,67,0.0,-999.0,93,-99.99,,,0.00,Acu-Link.com,2013-05-21 22:31:00,
2013-05-21 18:46:00,77.9,75.4,29.75,NE,45,0.0,-999.0,92,-99.99,,,0.00,Acu-Link.com,2013-05-21 22:46:00,
2013-05-21 19:01:00,75.9,75.3,29.77,SSE,157,1.1,-999.0,98,-99.99,,,0.00,Acu-Link.com,2013-05-21 23:01:00,
2013-05-21 19:17:00,74.8,74.2,29.77,NNE,22,0.0,-999.0,98,-99.99,,,0.00,Acu-Link.com,2013-05-21 23:17:00,
2013-05-21 19:32:00,73.9,73.3,29.77,SSE,157,0.0,-999.0,98,-99.99,,,0.00,Acu-Link.com,2013-05-21 23:32:00,
2013-05-21 19:47:00,71.8,71.2,29.78,West,270,1.7,-999.0,98,-99.99,,,0.00,Acu-Link.com,2013-05-21 23:47:00,
2013-05-21 20:03:00,71.4,70.8,29.79,SW,225,0.0,-999.0,98,-99.99,,,0.00,Acu-Link.com,2013-05-22 00:03:00,
2013-05-21 20:18:00,71.2,70.6,29.79,SSE,157,0.0,-999.0,98,-99.99,,,0.00,Acu-Link.com,2013-05-22 00:18:00,
2013-05-21 20:33:00,69.4,68.8,29.79,SSE,157,1.1,-999.0,98,-99.99,,,0.00,Acu-Link.com,2013-05-22 00:33:00,
2013-05-21 20:48:00,69.3,68.7,29.79,South,180,0.0,-999.0,98,-99.99,,,0.00,Acu-Link.com,2013-05-22 00:48:00,
2013-05-21 21:03:00,67.8,67.2,29.78,ENE,67,0.0,-999.0,98,-99.99,,,0.00,Acu-Link.com,2013-05-22 01:03:00,
2013-05-21 21:19:00,67.3,66.7,29.78,East,90,0.0,-999.0,98,-99.99,,,0.00,Acu-Link.com,2013-05-22 01:19:00,
2013-05-21 21:34:00,67.1,66.5,29.79,SE,135,0.0,-999.0,98,-99.99,,,0.00,Acu-Link.com,2013-05-22 01:34:00,
2013-05-21 21:54:00,66.9,66.3,29.79,SSE,157,0.0,-999.0,98,-99.99,,,0.00,Acu-Link.com,2013-05-22 01:54:00,
2013-05-21 22:11:00,66.2,65.6,29.80,South,180,0.0,-999.0,98,-99.99,,,0.00,Acu-Link.com,2013-05-22 02:11:00,
2013-05-21 22:27:00,65.7,65.1,29.80,West,270,0.0,-999.0,98,-99.99,,,0.00,Acu-Link.com,2013-05-22 02:27:00,
2013-05-21 22:42:00,65.3,64.7,29.80,WSW,247,0.0,-999.0,98,-99.99,,,0.00,Acu-Link.com,2013-05-22 02:42:00,
2013-05-21 22:57:00,64.8,64.2,29.80,SSE,157,0.0,-999.0,98,-99.99,,,0.00,Acu-Link.com,2013-05-22 02:57:00,
2013-05-21 23:12:00,64.4,63.8,29.79,West,270,0.0,-999.0,98,-99.99,,,0.00,Acu-Link.com,2013-05-22 03:12:00,
2013-05-21 23:28:00,64.0,63.4,29.80,SE,135,0.0,-999.0,98,-99.99,,,0.00,Acu-Link.com,2013-05-22 03:28:00,
2013-05-21 23:43:00,64.0,63.4,29.81,SSE,157,0.0,-999.0,98,-99.99,,,0.00,Acu-Link.com,2013-05-22 03:43:00,
2013-05-21 23:58:00,64.2,63.6,29.81,NNW,337,0.0,-999.0,98,-99.99,,,0.00,Acu-Link.com,2013-05-22 03:58:00,